Regional Weather Roundup
Issued by NWS

Home | Current Version | Previous Version | Graphics & Text | Print | Product List | Glossary On
Versions: 1 2 3 4 5 6 7 8 9 10 11 12 13 14 15 16 17 18 19 20 21 22 23 24 25 26 27 28 29 30 31 32 33 34 35 36 37 38 39 40 41 42 43 44 45 46 47 48 49 50
000
ASUS45 KPSR 101400
RWRAZ

PRELIMINARY ARIZONA REGIONAL HOURLY WEATHER ROUNDUP
NATIONAL WEATHER SERVICE PHOENIX AZ
700 AM MST THU JUL 10 2014

NOTE: FAIR INDICATES FEW OR NO CLOUDS BELOW 12,000 FEET WITH NO
SIGNIFICANT WEATHER AND/OR OBSTRUCTIONS TO VISIBILITY.

AZZ001>003-036-101500-
NORTHWEST ARIZONA

CITY           SKY/WX    TMP DP  RH WIND       PRES   REMARKS
KINGMAN        MOSUNNY   76  62  62 SE13      30.03R
$$

AZZ004>008-015-016-018-101500-
NORTH CENTRAL ARIZONA

CITY           SKY/WX    TMP DP  RH WIND       PRES   REMARKS
GRAND CANYON   PTSUNNY   64  55  72 CALM      30.26R
WILLIAMS         N/A     61  54  77 CALM      30.33R
PRESCOTT       MOSUNNY   69  58  67 CALM      30.16R
FLAGSTAFF      SUNNY     63  53  70 CALM      30.29R
PAYSON         PTSUNNY   68  57  68 CALM      30.19R
PAGE           SUNNY     79  51  37 VRB3      30.07R
$$

AZZ009>014-017-101500-
NORTHEAST ARIZONA

CITY           SKY/WX    TMP DP  RH WIND       PRES   REMARKS
WINSLOW        NOT AVBL
SAINT JOHNS    MOSUNNY   65  54  67 CALM      30.20R
WINDOW ROCK    SUNNY     63  53  70 SW3       30.28S
$$

AZZ023-101500-
GREATER PHOENIX AREA

CITY           SKY/WX    TMP DP  RH WIND       PRES   REMARKS
PHOENIX        CLOUDY    87  63  44 SW5       29.88R
GLENDALE       PTSUNNY   86  66  51 S8        29.90R
DEER VALLEY    CLOUDY    84  64  50 S5        29.90R
SCOTTSDALE     CLOUDY    85  65  51 W3        29.92R
MESA-FALCON    PTSUNNY   84  63  48 W5        29.91R
MESA-GATEWAY   PTSUNNY   84  63  48 VRB3      29.93R
CHANDLER       PTSUNNY   84  64  51 VRB6      29.90R
$$

AZZ027-028-101500-
SOUTHWEST MARICOPA COUNTY AND PINAL COUNTY

CITY           SKY/WX    TMP DP  RH WIND       PRES   REMARKS
CASA GRANDE    CLOUDY    81  66  61 CALM      29.93R
GILA BEND      PTSUNNY   81  68  65 SE3       29.90
$$

AZZ503-504-507>509-101500-
SOUTHEAST ARIZONA

CITY           SKY/WX    TMP DP  RH WIND       PRES   REMARKS
TUCSON         MOSUNNY   79  63  57 SE7       30.02R
DAVIS-MONTHAN  CLOUDY    77  64  65 S6        30.02R
RYAN FIELD       N/A     79  66  65 SE3       30.01R
NOGALES        PTSUNNY   71  63  75 CALM      30.10R
SIERRA VISTA   PTSUNNY   72  57  60 NW3       30.15R
SAFFORD        SUNNY     78  62  57 CALM      30.00R
$$

AZZ020-021-025-026-031-101500-
SOUTHWEST ARIZONA

CITY           SKY/WX    TMP DP  RH WIND       PRES   REMARKS
YUMA           PTSUNNY   85  67  54 S10       29.83R
$$

CAZ031-033-041-043-047-048-061-101500-
SOUTHERN CALIFORNIA

CITY           SKY/WX    TMP DP  RH WIND       PRES   REMARKS
DOWNTOWN L.A.  CLOUDY    69  61  75 CALM      29.95S
L.A. AIRPORT   CLOUDY    68  60  75 CALM      29.97R
SAN DIEGO      PTSUNNY   70  59  68 NE3       29.97R
BURBANK        CLOUDY    66  60  81 VRB7      29.96S
ONTARIO        PTSUNNY   66  61  84 VRB5      29.97R
RIVERSIDE      PTSUNNY   65  61  87 CALM      29.98R
PALM SPRINGS   MOSUNNY   83  56  39 CALM      29.86R
EL CENTRO NAS  MOSUNNY   81  72  74 CALM      29.81R
IMPERIAL       SUNNY     83  72  69 E5        29.81R
BLYTHE         MOSUNNY   84  69  60 SE10      29.84R
$$

NVZ020-UTZ003-101500-
SOUTHERN NEVADA-UTAH

CITY           SKY/WX    TMP DP  RH WIND       PRES   REMARKS
LAS VEGAS      NOT AVBL
SALT LAKE CITY CLOUDY    73  60  63 SE7       30.00R
$$

NMZ009-TXZ055-101500-
NEW MEXICO-WEST TEXAS

CITY           SKY/WX    TMP DP  RH WIND       PRES   REMARKS
ALBUQUERQUE    MOSUNNY   70  56  61 SE6       30.19R
EL PASO        MOSUNNY   78  57  48 SE6       30.06R
$$


........................KEY........................
SKY/WX - SKY CONDITION/WEATHER
TMP    - TEMPERATURE IN FAHRENHEIT
DP     - DEW POINT IN FAHRENHEIT
RH     - RELATIVE HUMIDITY IN PERCENT
WIND   - DIRECTION AND SPEED IN MILES PER HOUR (MPH)
VRB    - VARIABLE WIND DIRECTION
PRES   - MEAN SEA LEVEL PRESSURE IN INCHES OF MERCURY
         F - FALLING PRESSURE   R - RISING PRESSURE
         S - STEADY PRESSURE
VSB    - VISIBILITY IN MILES
HX     - HEAT INDEX IN FAHRENHEIT
WCI    - WIND CHILL INDEX IN FAHRENHEIT
TC     - TEMPERATURE IN CELSIUS WHICH IS ALSO KNOWN AS
         TEMPERATURE IN CENTIGRADE
AFB    - AIR FORCE BASE
         LUKE AFB IS LUKE AIR FORCE BASE
         DAVIS-MONTHAN IS DAVIS-MONTHAN AIR FORCE BASE
NAS    - NAVAL AIR STATION
         EL CENTRO NAS IS EL CENTRO NAVAL AIR STATION
N/A    - NOT AVAILABLE



USA.gov is the U.S. government's official web portal to all federal, state and local government web resources and services.